Tracking 23114 objects as of 15-May-2021
HD Live streaming from Space Station
objects crossing your sky now

SL-6 R/B(2)

Track SL-6 R/B(2) now!


NORAD ID: 12311
Int'l Code: 1981-016E
Perigee: 3,402.0 km
Apogee: 36,264.1 km
Inclination: 68.3 °
Period: 703.6 minutes
Semi major axis: 26204 km
RCS: 5.1304 m2 (large)
Launch date: February 19, 1981
Source: Commonwealth of Independent States (former USSR) (CIS)
Launch site: PLESETSK MISSILE AND SPACE COMPLEX (PKMTR)

Note: This is a ROCKET BODY
aabbcc
Your satellite tracking list
Your tracking list is empty




NASA's NSSDC Master Catalog

Two Line Element Set (TLE):
1 12311U 81016E   21133.68728637  .00000560  00000-0  00000-0 0  9992
2 12311  68.2728 139.0637 6270430  11.7287 357.8752  2.04668361300736
Source of the keplerian elements: AFSPC